Weather History for KRKD - November, 2013

Change the Weather History Date:

Wednesday, November 27, 2013

  Actual Average Record
Temperature  
Mean Temperature 45 °F -  
Max Temperature 55 °F 40 °F 55 °F (1999)
Min Temperature 35 °F 28 °F 17 °F (2012)
Degree Days  
Heating Degree Days 20    
Moisture  
Dew Point 49 °F    
Average Humidity 97    
Maximum Humidity 100    
Minimum Humidity 87    
Precipitation  
Precipitation 2.23 in - - ()
Sea Level Pressure  
Sea Level Pressure 29.52 in    
Wind  
Wind Speed 14 mph (SSE)    
Max Wind Speed 29 mph    
Max Gust Speed 41 mph    
Visibility 6 miles    
Events      
Averages and records for this station are not official NWS values.
T = Trace of Precipitation, MM = Missing Value Source: NWS Daily Summary

Daily Weather History Graph

Daily Weather History Graph

Search for Another Location

Airport or City:

Trip Planner

Search our weather history database for the weather conditions in past years. The results will help you decide how hot, cold, wet, or windy it might be!

Date:

Astronomy

Nov. 27, 2013 Rise Set
Actual Time 6:46 AM EST 4:01 PM EST
Civil Twilight 6:14 AM EST 4:33 PM EST
Nautical Twilight 5:38 AM EST 5:09 PM EST
Astronomical Twilight 5:04 AM EST 5:43 PM EST
Moon 12:33 AM EST (11/27) 12:47 PM EST (11/27)
Length of Visible Light 10h 18m
Length of Day
9h 14m
Waning Crescent, 32% of the Moon is Illuminated
Nov 27
Waning Crescent
Dec 2
New
Dec 9
First Quarter
Dec 17
Full
Dec 25
Last Quarter

Hourly Weather History & Observations

Time (EST) Temp. Windchill Dew Point Humidity Pressure Visibility Wind Dir Wind Speed Gust Speed Precip Events Conditions
12:15 AM 35.6 °F 32.8 °F 33.8 °F 93% 30.17 in 5.0 mi East 3.5 mph - 0.01 in   Overcast
12:35 AM 39.2 °F 35.0 °F 39.2 °F 100% 30.16 in 7.0 mi ESE 5.8 mph - 0.03 in   Overcast
12:55 AM 39.2 °F 33.6 °F 39.2 °F 100% 30.14 in 7.0 mi ESE 8.1 mph - 0.05 in   Overcast
1:15 AM 41.0 °F 35.8 °F 39.2 °F 93% 30.12 in 8.0 mi ESE 8.1 mph - 0.01 in   Overcast
1:35 AM 42.8 °F 37.0 °F 42.8 °F 100% 30.11 in 8.0 mi ESE 10.4 mph - 0.03 in   Overcast
1:55 AM 42.8 °F 36.6 °F 42.8 °F 100% 30.10 in 9.0 mi ESE 11.5 mph - 0.05 in   Overcast
2:15 AM 44.6 °F 38.4 °F 44.6 °F 100% 30.09 in 8.0 mi East 12.7 mph - 0.01 in   Overcast
2:35 AM 44.6 °F 38.1 °F 42.8 °F 93% 30.06 in 8.0 mi ESE 13.8 mph - 0.02 in   Overcast
2:55 AM 46.4 °F 40.1 °F 46.4 °F 100% 30.02 in 9.0 mi ESE 15.0 mph - 0.03 in   Overcast
3:15 AM 46.4 °F 40.4 °F 44.6 °F 93% 30.01 in 10.0 mi ESE 13.8 mph - 0.01 in   Overcast
3:35 AM 46.4 °F 40.7 °F 46.4 °F 100% 29.99 in 10.0 mi ESE 12.7 mph - 0.02 in   Overcast
3:55 AM 46.4 °F 39.8 °F 46.4 °F 100% 29.99 in 10.0 mi SE 16.1 mph - 0.03 in   Overcast
4:15 AM 46.4 °F 39.5 °F 46.4 °F 100% 29.97 in 10.0 mi SE 17.3 mph 23.0 mph 0.02 in   Overcast
4:35 AM 46.4 °F 39.8 °F 46.4 °F 100% 29.95 in 10.0 mi ESE 16.1 mph 21.9 mph 0.03 in   Overcast
4:55 AM 48.2 °F - 46.4 °F 93% 29.92 in 8.0 mi ESE 16.1 mph 23.0 mph 0.06 in   Overcast
5:15 AM 48.2 °F - 48.2 °F 100% 29.89 in 9.0 mi ESE 16.1 mph 26.5 mph 0.03 in   Overcast
5:35 AM 48.2 °F - 48.2 °F 100% 29.87 in 8.0 mi SE 18.4 mph 25.3 mph 0.04 in   Overcast
5:55 AM 48.2 °F - 48.2 °F 100% 29.85 in 6.0 mi SE 20.7 mph 28.8 mph 0.05 in   Overcast
6:15 AM 50.0 °F - 48.2 °F 94% 29.82 in 8.0 mi SE 19.6 mph 26.5 mph 0.01 in   Overcast
6:35 AM 50.0 °F - 48.2 °F 94% 29.81 in 7.0 mi SE 20.7 mph 29.9 mph 0.01 in   Overcast
6:55 AM 51.8 °F - 50.0 °F 94% 29.78 in 5.0 mi SE 18.4 mph 26.5 mph 0.04 in   Overcast
7:15 AM 51.8 °F - 50.0 °F 94% 29.76 in 5.0 mi SE 25.3 mph 34.5 mph 0.06 in   Overcast
7:35 AM 51.8 °F - 50.0 °F 94% 29.73 in 4.0 mi SE 20.7 mph 27.6 mph 0.12 in   Overcast
7:55 AM 51.8 °F - 50.0 °F 94% 29.70 in 4.0 mi ESE 23.0 mph 32.2 mph 0.17 in   Overcast
8:15 AM 51.8 °F - 50.0 °F 94% 29.66 in 3.0 mi ESE 23.0 mph 32.2 mph 0.09 in   Overcast
8:35 AM 51.8 °F - 51.8 °F 100% 29.61 in 3.0 mi ESE 28.8 mph 35.7 mph 0.16 in   Overcast
8:55 AM 51.8 °F - 51.8 °F 100% 29.57 in 2.5 mi SE 28.8 mph 41.4 mph 0.21 in   Overcast
9:15 AM 51.8 °F - 51.8 °F 100% 29.56 in 2.5 mi SE 23.0 mph 34.5 mph 0.04 in   Overcast
9:35 AM 53.6 °F - 51.8 °F 94% 29.54 in 3.0 mi SE 23.0 mph 38.0 mph 0.08 in   Overcast
9:55 AM 53.6 °F - 51.8 °F 94% 29.52 in 3.0 mi SSE 25.3 mph 34.5 mph 0.16 in   Overcast
10:15 AM 53.6 °F - 51.8 °F 94% 29.50 in 3.0 mi SSE 24.2 mph 34.5 mph 0.07 in   Overcast
10:35 AM 53.6 °F - 53.6 °F 100% 29.47 in 3.0 mi SSE 23.0 mph 38.0 mph 0.12 in   Overcast
10:55 AM 53.6 °F - 53.6 °F 100% 29.45 in 3.0 mi SSE 24.2 mph 36.8 mph 0.21 in   Overcast
11:15 AM 53.6 °F - 53.6 °F 100% 29.41 in 2.5 mi SSE 24.2 mph 34.5 mph 0.12 in   Overcast
11:35 AM 53.6 °F - 53.6 °F 100% 29.40 in 2.5 mi South 21.9 mph 32.2 mph 0.13 in   Overcast
11:55 AM 53.6 °F - 51.8 °F 94% 29.40 in 1.8 mi South 25.3 mph 38.0 mph 0.17 in   Overcast
12:15 PM 53.6 °F - 51.8 °F 94% 29.38 in 3.0 mi South 20.7 mph 35.7 mph 0.02 in   Overcast
12:35 PM 55.4 °F - 53.6 °F 94% 29.38 in 4.0 mi South 21.9 mph 31.1 mph 0.04 in   Overcast
12:55 PM 55.4 °F - 53.6 °F 94% 29.36 in 3.0 mi South 25.3 mph 36.8 mph 0.06 in   Overcast
1:15 PM 55.4 °F - 53.6 °F 94% 29.35 in 3.0 mi South 24.2 mph 33.4 mph 0.02 in   Overcast
1:35 PM 55.4 °F - 53.6 °F 94% 29.34 in 3.0 mi South 21.9 mph 33.4 mph 0.09 in   Overcast
1:55 PM 55.4 °F - 55.4 °F 100% 29.35 in 2.5 mi SSW 15.0 mph 32.2 mph 0.13 in   Overcast
2:15 PM 55.4 °F - 53.6 °F 94% 29.34 in 5.0 mi SW 13.8 mph 21.9 mph 0.08 in   Overcast
2:35 PM 55.4 °F - 53.6 °F 94% 29.34 in 6.0 mi SW 12.7 mph 21.9 mph 0.19 in   Overcast
2:55 PM 55.4 °F - 55.4 °F 100% 29.32 in 6.0 mi SW 10.4 mph 18.4 mph 0.33 in   Overcast
3:15 PM 55.4 °F - 55.4 °F 100% 29.31 in 4.0 mi SSW 9.2 mph 17.3 mph 0.11 in   Overcast
3:35 PM 55.4 °F - 55.4 °F 100% 29.29 in 2.5 mi SSW 8.1 mph 17.3 mph 0.18 in   Mostly Cloudy
3:55 PM 55.4 °F - 53.6 °F 94% 29.27 in 2.0 mi South 6.9 mph - 0.20 in   Overcast
4:15 PM 55.4 °F - 53.6 °F 94% 29.24 in 3.0 mi SSE 3.5 mph - 0.01 in   Overcast
4:35 PM 55.4 °F - 55.4 °F 100% 29.23 in 8.0 mi SSE 4.6 mph - 0.02 in   Overcast
4:55 PM 55.4 °F - 55.4 °F 100% 29.22 in 1.2 mi SE 9.2 mph - 0.03 in   Overcast
5:15 PM 53.6 °F - 53.6 °F 100% 29.19 in 3.0 mi ESE 12.7 mph - 0.01 in   Overcast
5:35 PM 53.6 °F - 53.6 °F 100% 29.23 in 3.0 mi South 13.8 mph 20.7 mph 0.01 in   Overcast
5:55 PM 51.8 °F - 51.8 °F 100% 29.21 in 2.5 mi South 8.1 mph 16.1 mph 0.03 in   Overcast
6:15 PM 51.8 °F - 50.0 °F 94% 29.19 in 5.0 mi SSW 10.4 mph - 0.02 in   Overcast
6:35 PM 51.8 °F - 51.8 °F 100% 29.19 in 2.5 mi South 6.9 mph - 0.02 in   Overcast
6:55 PM 51.8 °F - 50.0 °F 94% 29.20 in 2.5 mi SSW 8.1 mph - 0.02 in   Overcast
7:15 PM 51.8 °F - 51.8 °F 100% 29.17 in 3.0 mi South 8.1 mph - 0.02 in   Overcast
7:35 PM 53.6 °F - 53.6 °F 100% 29.18 in 4.0 mi South 12.7 mph 18.4 mph 0.06 in   Overcast
7:55 PM 53.6 °F - 53.6 °F 100% 29.17 in 4.0 mi SSW 6.9 mph - 0.11 in   Overcast
8:15 PM 53.6 °F - 51.8 °F 94% 29.15 in 5.0 mi SSW 10.4 mph 17.3 mph 0.03 in   Overcast
8:35 PM 51.8 °F - 50.0 °F 94% 29.16 in 8.0 mi SW 6.9 mph - 0.03 in   Overcast
8:55 PM 51.8 °F - 50.0 °F 94% 29.12 in 8.0 mi WSW 4.6 mph - 0.07 in   Overcast
9:15 PM 51.8 °F - 50.0 °F 94% 29.13 in 10.0 mi West 8.1 mph - N/A   Overcast
9:35 PM 51.8 °F - 51.8 °F 100% 29.14 in 10.0 mi WSW 8.1 mph - 0.01 in   Overcast
9:55 PM 51.8 °F - 50.0 °F 94% 29.17 in 10.0 mi West 12.7 mph 21.9 mph 0.01 in   Overcast
10:15 PM 48.2 °F - 48.2 °F 100% 29.17 in 10.0 mi WNW 17.3 mph 25.3 mph N/A   Overcast
10:35 PM 44.6 °F 37.2 °F 42.8 °F 93% 29.20 in 10.0 mi WNW 17.3 mph 24.2 mph 0.01 in   Overcast
10:55 PM 42.8 °F 35.8 °F 41.0 °F 93% 29.21 in 10.0 mi WNW 13.8 mph 25.3 mph 0.01 in   Overcast
11:15 PM 42.8 °F 35.4 °F 39.2 °F 87% 29.23 in 10.0 mi WNW 15.0 mph 24.2 mph N/A   Overcast
11:35 PM 41.0 °F 34.7 °F 37.4 °F 87% 29.22 in 10.0 mi WNW 10.4 mph 23.0 mph N/A   Overcast
11:55 PM 39.2 °F 33.6 °F 37.4 °F 93% 29.24 in 10.0 mi NW 8.1 mph - N/A   Mostly Cloudy